Regional Weather Roundup
Issued by NWS

Home | Current Version | Previous Version | Graphics & Text | Print | Product List | Glossary On
Versions: 1 2 3 4 5 6 7 8 9 10 11 12 13 14 15 16 17 18 19 20 21 22 23 24 25 26 27
000
ASUS45 KBOU 171506
RWRCO

WEATHER ROUNDUP FOR COLORADO
NATIONAL WEATHER SERVICE DENVER/BOULDER CO
900 AM MDT THU APR 17 2014

NOTE: "FAIR" INDICATES FEW OR NO CLOUDS BELOW 12000 FEET WITH NO
SIGNIFICANT WEATHER AND/OR OBSTRUCTIONS TO VISIBILITY.

COZ001>005-013-030-031-171600-
...NORTHWEST COLORADO...

CITY           SKY/WX    TMP DP  RH WIND       PRES   REMARKS
CRAIG          MOSUNNY   33  24  69 CALM      30.14R
HAYDEN         SUNNY     36  19  51 E9        30.15R
MEEKER         MOSUNNY   38  19  46 SE7       30.13R
MOUNT WERNER   NOT AVBL
STEAMBOAT SPGS SUNNY     33  17  53 CALM      30.13S
WALDEN         SUNNY     34  19  55 CALM      30.11S
$$

COZ006>008-011-171600-
...WEST CENTRAL VALLEYS...

CITY           SKY/WX    TMP DP  RH WIND       PRES   REMARKS
GRAND JUNCTION SUNNY     45  23  42 SE10      30.11R
MONTROSE       SUNNY     45  23  42 S5        30.14R
EAGLE          SUNNY     34  21  60 CALM      30.18R
RIFLE          SUNNY     39  23  52 CALM      30.14R
DELTA          SUNNY     44  26  48 E5        30.14R
NUCLA            N/A     41  25  52 CALM      30.17R
$$

COZ017>023-064>068-171600-
...SOUTHWEST COLORADO...

CITY           SKY/WX    TMP DP  RH WIND       PRES   REMARKS
DURANGO        SUNNY     42  21  43 CALM      30.15R
CORTEZ         SUNNY     43  25  49 NE6       30.14R
PAGOSA SPRINGS SUNNY     40  18  40 CALM      30.18R
TELLURIDE      NOT AVBL
WOLF CREEK PAS NOT AVBL
$$

COZ009-010-012-014-032>034-037-058>063-171600-
...CENTRAL COLORADO...

CITY           SKY/WX    TMP DP  RH WIND       PRES   REMARKS
ASPEN          MOSUNNY   39  15  37 VRB3      30.13R
BUENA VISTA    MOSUNNY   30  28  91 CALM      30.19S
COPPER MTN     SUNNY     27  10  50 SW3       30.19R
BERTHOUD PASS  FAIR      18   9  68 NW23G29   30.16R WCI   0
COTTONWOOD PAS MOSUNNY   28  25  86 CALM      30.19R
GUNNISON       MOSUNNY   32  21  64 CALM      30.22R
KREMMLING      SUNNY     34  18  51 CALM      30.16S
LEADVILLE      SUNNY     27  17  66 CALM      30.16S
MONARCH PASS   SUNNY     19  18  93 MISG      30.29R
SALIDA         MOSUNNY   36  32  85 N5        30.26R
SUNLIGHT       MOSUNNY   30  18  59 CALM      30.20S
WILKERSON PASS MOSUNNY   23  21  93 SW5       30.21R WCI  17
$$

COZ069>075-171600-
...SAN LUIS VALLEY/SANGRE DE CRISTO MOUNTAINS...

CITY           SKY/WX    TMP DP  RH WIND       PRES   REMARKS
ALAMOSA        MOSUNNY   32  30  92 S3        30.20R
LA VETA PASS     N/A     28  27  93 W6        30.18S WCI  22
SAGUACHE       CLOUDY    36  27  69 W3        30.21R
$$

COZ035-036-038>040-171600-
...NORTHERN COLORADO FRONT RANGE...

CITY           SKY/WX    TMP DP  RH WIND       PRES   REMARKS
DENVER INTL AP MOSUNNY   44  31  60 W8        30.09S
DMNS CITY PARK   N/A     44  29  55 N1        30.10S
AURORA         MOSUNNY   45  30  57 S9        30.10R
FRONT RANGE AP NOT AVBL
ERIE MUNI ARPT SUNNY     39  34  81 CALM      30.11S
BOULDER MUN AP SUNNY     39  32  75 CALM      30.10S
CENTENNIAL     MOSUNNY   47  26  44 SW13      30.09S
BROOMFIELD     MOSUNNY   41  34  75 N6        30.10R
FORT COLLINS   SUNNY     37  32  81 N8        30.12S
LONGMONT       SUNNY     43  35  72 N5        30.12S
$$

COZ041-046-047-076>085-087-088-171600-
...PIKES PEAK/PALMER DIVIDE AND SOUTHERN FOOTHILLS...

CITY           SKY/WX    TMP DP  RH WIND       PRES   REMARKS
COLO. SPRINGS  CLOUDY    35  33  92 S10       30.18R WCI  27
A. F. ACADEMY  PTSUNNY   33  33  99 SE5       30.17R WCI  29
ELLICOTT       NOT AVBL
FALCON         CLOUDY    32  32  99 SW10G18   30.18R FOG     WCI  24
FORT CARSON    CLOUDY    37  36  93 SW6       30.17R
LIMON          CLOUDY    39  34  82 S16G22    30.16F
MONUMENT HILL  SUNNY     36  30  80 S17       30.12R
TRINIDAD       CLOUDY    38  35  89 S8        30.20R
$$

COZ042>045-048>051-090-091-171600-
...NORTHEAST COLORADO...

CITY           SKY/WX    TMP DP  RH WIND       PRES   REMARKS
GREELEY ARPT   SUNNY     39  30  70 CALM      30.11F
AKRON          CLOUDY    37  35  92 S16       30.14S
BURLINGTON     CLOUDY    36  31  82 SE13      30.21S
WRAY           CLOUDY   N/A N/A N/A SE7       30.23S FOG
STERLING       CLOUDY    41  37  87 SE10      30.15S
HOLYOKE        CLOUDY    34  32  93 SE10      30.22R FOG     WCI  26
FORT MORGAN    SUNNY     45  35  68 S14       30.12F
$$

COZ086-089-092>099-171600-
...SOUTHEAST COLORADO...

CITY           SKY/WX    TMP DP  RH WIND       PRES   REMARKS
PUEBLO         PTSUNNY   41  37  86 S8        30.20R
LA JUNTA       CLOUDY    42  37  82 SE7       30.22R
LAMAR          CLOUDY    43  39  86 S12       30.21R
SPRINGFIELD      N/A     38  36  92 E6        30.23R
$$



USA.gov is the U.S. government's official web portal to all federal, state and local government web resources and services.